KL7GG Weather Reports


Display with metric or nautical units.
time (UTC)temp
F
wind
direction
speed
MPH
gust
MPH
rain 1hr
in
rain 24hr
in
rain mn
in
humidity
%
barometer
mb
20260505224336 51 302 1.0 12.0 0.00 0.00 0.00 48 1003.3
20260505222828 51 287 3.0 10.0 0.00 0.00 0.00 47 1003.2
20260505221324 51 287 4.0 14.0 0.00 0.00 0.00 50 1003.1
20260505215820 51 330 3.0 13.0 0.00 0.00 0.00 49 1003.0
20260505214314 50 332 2.0 8.0 0.00 0.00 0.00 52 1002.9
20260505212810 51 327 4.0 12.0 0.00 0.00 0.00 51 1002.6
20260505211304 51 315 7.0 16.0 0.00 0.00 0.00 57 1002.5
20260505205758 50 291 4.0 11.0 0.00 0.00 0.00 59 1002.5
20260505202748 49 293 4.0 12.0 0.00 0.00 0.00 62 1002.4
20260505201244 49 299 1.0 11.0 0.00 0.00 0.00 62 1002.4
20260505195740 48 303 5.0 10.0 0.00 0.00 0.00 66 1002.3
20260505194236 48 278 1.0 7.0 0.00 0.00 0.00 64 1002.4
20260505192732 47 0 0.0 7.0 0.00 0.00 0.00 69 1002.3
20260505191228 46 0 0.0 5.0 0.00 0.00 0.00 74 1002.3
20260505185724 45 0 0.0 0.0 0.00 0.00 0.00 80 1002.4
20260505184220 44 0 0.0 5.0 0.00 0.00 0.00 82 1002.5
20260505182716 44 322 3.0 7.0 0.00 0.01 0.00 83 1002.3
20260505181212 44 0 0.0 6.0 0.00 0.01 0.00 85 1002.0
20260505175708 43 321 4.0 9.0 0.00 0.01 0.00 87 1002.0
20260505174202 43 0 0.0 4.0 0.00 0.01 0.00 91 1001.7
20260505172658 42 0 0.0 4.0 0.00 0.01 0.00 93 1001.5
20260505171154 42 0 0.0 3.0 0.00 0.01 0.00 95 1001.4
20260505165650 41 0 0.0 4.0 0.00 0.01 0.00 96 1001.4
20260505164146 40 0 0.0 5.0 0.00 0.01 0.00 96 1001.2
20260505162642 39 0 0.0 0.0 0.00 0.01 0.00 96 1001.1
20260505161138 38 0 0.0 0.0 0.00 0.01 0.00 96 1001.0
20260505152626 38 0 0.0 3.0 0.00 0.01 0.00 95 1000.8
20260505151122 37 321 3.0 5.0 0.00 0.01 0.00 95 1000.5
20260505124040 37 0 0.0 0.0 0.00 0.02 0.00 94 1000.3
20260505121030 38 0 0.0 0.0 0.00 0.03 0.00 94 1000.5
20260505115525 38 0 0.0 0.0 0.00 0.03 0.00 94 1000.5
20260505114021 38 0 0.0 0.0 0.00 0.03 0.00 94 1000.6
20260505112517 38 0 0.0 0.0 0.00 0.03 0.00 94 1000.7
20260505111014 39 0 0.0 0.0 0.00 0.04 0.00 94 1000.6
20260505100958 39 0 0.0 0.0 0.00 0.05 0.00 94 1000.5
20260505095452 39 0 0.0 0.0 0.00 0.05 0.00 93 1000.5
20260505093947 39 0 0.0 0.0 0.00 0.05 0.00 93 1001.0
20260505090937 39 0 0.0 0.0 0.00 0.05 0.00 93 1000.9
20260505085433 39 0 0.0 0.0 0.00 0.05 0.00 93 1000.9
20260505082423 40 0 0.0 0.0 0.00 0.05 0.05 93 1001.0
20260505080919 40 0 0.0 0.0 0.00 0.05 0.05 92 1001.0
20260505075413 40 0 0.0 3.0 0.00 0.05 0.05 92 1001.1
20260505073909 40 0 0.0 4.0 0.00 0.05 0.05 92 1001.0
20260505072405 41 307 1.0 7.0 0.00 0.05 0.05 92 1001.0
20260505070901 41 324 1.0 5.0 0.00 0.05 0.05 92 1001.0
20260505063851 41 314 1.0 8.0 0.00 0.05 0.05 91 1001.0
20260505062347 41 354 3.0 7.0 0.00 0.05 0.05 91 1001.2
20260505060843 42 321 4.0 7.0 0.00 0.05 0.05 90 1001.2
20260505055340 42 0 0.0 5.0 0.00 0.05 0.05 88 1001.0
20260505053835 43 0 0.0 0.0 0.00 0.05 0.05 88 1001.5
20260505052331 43 0 0.0 2.0 0.00 0.05 0.05 87 1001.5
20260505050827 43 0 0.0 0.0 0.00 0.05 0.05 87 1001.5
20260505040809 47 0 0.0 5.0 0.00 0.05 0.05 80 1002.3
20260505033759 50 0 0.0 6.0 0.00 0.05 0.05 72 1002.7
20260505032255 49 0 0.0 1.0 0.00 0.05 0.05 74 1002.9
20260505030751 48 307 1.0 9.0 0.00 0.05 0.05 77 1003.5
20260505025247 47 283 6.0 12.0 0.00 0.06 0.05 80 1003.7
20260505023739 47 332 6.0 15.0 0.00 0.06 0.05 78 1003.7
20260505022235 47 326 2.0 8.0 0.00 0.06 0.05 82 1003.8
20260505020731 46 0 0.0 9.0 0.00 0.06 0.05 82 1004.2
20260505015225 45 337 5.0 11.0 0.00 0.06 0.05 86 1004.7
20260505013721 45 322 6.0 14.0 0.00 0.06 0.05 83 1004.8
20260505012217 46 316 3.0 10.0 0.00 0.06 0.05 84 1005.3
20260505010713 46 319 5.0 11.0 0.00 0.06 0.05 85 1005.5
20260505005207 46 0 0.0 3.0 0.00 0.06 0.05 86 1005.5
20260505002157 44 0 0.0 6.0 0.00 0.06 0.05 88 1006.7
20260505000653 44 316 3.0 7.0 0.00 0.06 0.05 88 1007.1
20260504235149 44 339 3.0 9.0 0.00 0.06 0.05 89 1007.3
20260504233645 43 298 8.0 12.0 0.00 0.06 0.05 90 1007.7
20260504232139 44 308 4.0 8.0 0.00 0.06 0.05 90 1007.4
20260504230635 44 313 2.0 11.0 0.00 0.06 0.05 90 1007.6